Location: Unspecified
(48.1170°N, 0.0000°E)
Time: 18:48:22
(UTC+00:00)

NOAA 19 - Visible Passes

Search period start: 14 October 2019 00:00
Search period end: 24 October 2019 00:00
Orbit: 840 x 862 km, 99.2° (Epoch: 13 October)

Date Brightness Start Highest point End Pass type
(mag) Time Alt. Az. Time Alt. Az. Time Alt. Az.
14 Oct 8.4 04:04:31 10° ENE 04:06:45 12° E 04:08:58 10° ESE visible
14 Oct 5.5 05:42:45 10° NNE 05:48:17 79° ESE 05:53:48 10° SSW visible
15 Oct 5.8 05:31:06 10° NNE 05:36:35 64° ESE 05:42:03 10° S visible
16 Oct 6.2 05:19:29 10° NNE 05:24:52 51° E 05:30:14 10° S visible
17 Oct 6.7 05:07:55 10° NNE 05:13:08 41° E 05:18:20 10° SSE visible
17 Oct 8.7 18:22:58 10° WSW 18:24:57 12° W 18:26:56 10° WNW visible
18 Oct 7.1 04:56:24 10° NNE 05:01:22 34° E 05:06:19 10° SSE visible
18 Oct 8.4 18:09:58 10° WSW 18:13:04 15° W 18:16:11 10° NW visible
19 Oct 7.5 04:44:55 10° NE 04:49:35 27° E 04:54:14 10° SSE visible
19 Oct 8.3 17:57:26 10° SW 18:01:14 19° W 18:05:04 10° NW visible
20 Oct 7.8 04:33:33 10° NE 04:37:47 22° E 04:41:59 10° SE visible
20 Oct 8.0 17:45:05 10° SW 17:49:24 24° W 17:53:45 10° NW visible
21 Oct 8.1 04:22:18 10° NE 04:25:57 18° E 04:29:35 10° SE visible
21 Oct 7.6 17:32:54 10° SSW 17:37:36 29° W 17:42:21 10° NW visible
22 Oct 8.3 04:11:15 10° NE 04:14:06 14° E 04:16:56 10° ESE visible
22 Oct 5.3 05:49:59 10° NNE 05:55:33 87° ESE 06:01:06 10° SSW visible
23 Oct 8.5 04:00:47 10° ENE 04:02:14 11° E 04:03:39 10° E visible
23 Oct 5.6 05:38:20 10° NNE 05:43:51 71° ESE 05:49:22 10° S visible
